Regional Weather Roundup
Issued by NWS Charleston, SC

Current Version | Previous Version | Graphics & Text | Print | Product List | Glossary On
Versions: 1 2 3 4 5 6 7 8 9 10 11 12 13 14 15 16 17 18 19 20 21 22 23 24 25 26 27 28 29 30 31 32 33 34 35 36 37 38 39 40 41 42 43 44 45 46 47 48 49 50
000
ASUS42 KCHS 051527
RWRCHS
REGIONAL WEATHER ROUNDUP
NATIONAL WEATHER SERVICE CHARLESTON SC
1100 AM EDT TUE MAY 05 2015

NOTE: "FAIR" INDICATES FEW OR NO CLOUDS BELOW 12,000 FEET WITH NO
SIGNIFICANT WEATHER AND/OR OBSTRUCTIONS TO VISIBILITY.

NOT ALL STATIONS ARE QUALITY CONTROLLED BY THE NATIONAL
WEATHER SERVICE. USE DATA WITH CAUTION...ESPECIALLY
DEWPOINT OBSERVATIONS.

SCZ027-030-031-034>040-042>050-051600-
...SOUTHEAST SOUTH CAROLINA...

CITY           SKY/WX    TMP DP  RH WIND       PRES   REMARKS
N CHARLESTON   MOSUNNY   75  54  47 SE9       30.34R
WATERFRONT PRK   N/A     73 N/A N/A E13         N/A
MOUNT PLEASANT FAIR      75  57  53 MISG      30.34R
PINOPOLIS      NOT AVBL
MONCKS CORNER  FAIR      77  54  44 E5        30.34S
SUMMERVILLE    FAIR      77  55  47 NE7       30.35S
BEAUFORT MCAS  MOSUNNY   76  58  53 NE8       30.32S
BEAUFORT ARPT  PTSUNNY   73  61  64 E12G17    30.32S
HILTON HEAD IS MOSUNNY   75  61  60 NE9       30.33S
WALTERBORO     PTSUNNY   73  55  53 E9        30.34S
ALLENDALE      FAIR      75  55  50 VRB7      30.32F

...SOUTHERN MIDLANDS AND PEE DEE...

CITY           SKY/WX    TMP DP  RH WIND       PRES   REMARKS
GEORGETOWN     NOT AVBL
KINGSTREE      NOT AVBL
ORANGEBURG     SUNNY     74  53  48 E5        30.35S
BARNWELL       FAIR      75  55  50 E8        30.34F
AIKEN          FAIR      73  50  43 E5        30.38S
MANNING        FAIR      73  50  43 CALM      30.35S
COLUMBIA       SUNNY     74  53  48 CALM      30.35S
SUMTER         NOT AVBL
FLORENCE       SUNNY     75  53  46 E7        30.36S
MYRTLE BEACH   SUNNY     75  55  50 SE12      30.37S
N MYRTLE BEACH SUNNY     75  53  46 E10       30.36R

$$

GAZ063-065-086>088-099>101-113>116-118-119-134>141-150-051600-
...SOUTHEAST GEORGIA...

CITY           SKY/WX    TMP DP  RH WIND       PRES   REMARKS
SAVANNAH ARPT  PTSUNNY   77  56  48 NE10G18   30.31S
HUNTER AAF     MOSUNNY   77  59  52 E12       30.29R
FORT STEWART   NOT AVBL
STATESBORO       N/A     75  57  54 E8        30.32S
SYLVANIA       SUNNY     75  58  54 E6        30.33S
CLAXTON        FAIR      73  59  60 E9        30.31S

...CSRA...CENTRAL AND FAR SOUTHEAST GEORGIA...

CITY           SKY/WX    TMP DP  RH WIND       PRES   REMARKS
THOMSON        SUNNY     76  54  47 NE3       30.39S
AUGUSTA-BUSH   SUNNY     74  57  55 VRB3      30.34F
AUGUSTA-DANIEL SUNNY     75  53  46 E7        30.35F
SWAINSBORO     NOT AVBL
VIDALIA        MOSUNNY   75  59  57 E12G17    30.31S
EASTMAN        FAIR      76  58  53 E9        30.33S
HAZLEHURST     FAIR      76  59  56 NE12      30.29S
ALMA           MOSUNNY   73  57  57 E10       30.29F
WAYCROSS       PTSUNNY   80  61  52 E10       30.28S
JESUP          PTSUNNY   79  63  57 E13G18    30.29S
BAXLEY         PTSUNNY   77  59  53 E9G16     30.29S
BRUNSWICK      MOSUNNY   77  57  50 NE14      30.30R
SAINT SIMONS   PTSUNNY   75  59  57 MISG      30.28R

$$

SCZ027-028-034-036>038-045-046-048>050-GAZ119-141-051600-
...LAKE AND SUPPLEMENTAL COASTAL OBSERVATIONS...

STATION/POSITION TIME  TEMP    WIND        PRES    WAVE   SWELL
                       AIR SEA DIR/SP/G            HT/PER HT/PER/DIR
                 (UTC) (F)     (DEG/KT/KT) (MB)    (FT/S) (FT/S/D)
UPR LAKE MARION  NOT AVBL
WINYAH BAY       1445   71      60/  8     1027.0S
LAKE MURRAY      1400   73        CALM     1027.4S
ACE BASIN NERRS  1430   75                   N/A
FORT PULASKI     1406   71 71   50/ 12/ 17 1026.7R
SAPELO ISLAND    1500   76      60/ 12     1026.0R

$$

ANZ835-935-AMZ111-154-330-350-352-354-370-450-454-472-051600-
...C-MAN AND BUOY OBSERVATIONS...

STATION/POSITION TIME  TEMP    WIND        PRES    WAVE   SWELL
                       AIR SEA DIR/SP/G            HT/PER HT/PER/DIR
                 (UTC) (F)     (DEG/KT/KT) (MB)    (FT/S) (FT/S/D)
BUOY 41004       1450   72 73   50/ 12/ 14 1026.4R   3/ 7   3/ 7
BUOY 41008       1450   71 70   60/ 14/ 16 1025.6R   4/ 6   2/100/10
FOLLY BEACH CMAN 1500   71      50/ 13/ 15 1027.3R
CAPERS NEARSHORE 1408   71      60/ 12/ 16 1027.2R
FRIPP NEARSHORE  1400   71      50/ 14/ 16 1025.7R


STATION/POSITION TIME  TEMP    WIND        PRES    WAVE   SWELL
                       AIR SEA DIR/SP/G            HT/PER HT/PER/DIR
                 (UTC) (F)     (DEG/KT/KT) (MB)    (FT/S) (FT/S/D)
5E ST. MARYS GA  1421      72                N/A     4/ 7   2/ 80/11
FRYING PAN BUOY  1450   72 71   80/ 10/ 12 1028.5R   3/ 6   3/130/ 6
BUOY 41025       1450   73 77  170/ 10/ 12 1029.0R   3/12   2/ 60/12
CAPE LOOKOUT NC  1500   71     110/  2/  2 1028.4R
BUOY 41002       1450   69 70  100/ 17/ 21 1027.1R   5/ 5   2/ 30/11
BUOY 41010       1420   75 78   80/ 16/ 19 1022.4R
ST AUGUSTINE FL  1500   72 72  100/  9/ 10 1024.8R


$$



USA.gov is the U.S. government's official web portal to all federal, state and local government web resources and services.